Regional Weather Roundup
Issued by NWS

Home | Current Version | Previous Version | Text Only | Print | Product List | Glossary On
Versions: 1 2 3 4 5 6 7 8 9 10 11 12 13 14 15 16 17 18 19 20 21 22 23 24 25 26 27 28 29 30 31 32 33 34 35 36 37 38 39 40 41 42 43 44 45 46 47 48 49 50
000
ASUS44 KOUN 050310
RWROK

WEATHER ROUNDUP FOR OKLAHOMA
NATIONAL WEATHER SERVICE NORMAN OK
1000 PM CDT MON MAY 04 2015

NOTE: "FAIR" INDICATES FEW OR NO CLOUDS BELOW 12,000 FEET WITH NO
      SIGNIFICANT WEATHER AND/OR OBSTRUCTIONS TO VISIBILITY.

OKZ001>007-009>012-014-015-017-050400-
NORTHWEST OKLAHOMA AND THE PANHANDLE

CITY           SKY/WX    TMP DP  RH WIND       PRES   REMARKS
GAGE           CLOUDY    69  57  65 S17G26    29.98R
GUYMON         CLOUDY    61  55  81 SW3       29.98R
ENID/WOODRING  FAIR      63  59  88 SE3       30.00R
$$

OKZ016-021>023-033>039-044-045-050400-
SOUTHWEST OKLAHOMA

CITY           SKY/WX    TMP DP  RH WIND       PRES   REMARKS
LAWTON/REGL    MOCLDY    68  59  73 SE9       29.99S
FREDERICK      CLOUDY    68  59  73 SE9       29.95R
CLINTON        CLOUDY    68  56  65 SE12      30.00R
HOBART         CLOUDY    67  58  72 SE10      29.98S
ALTUS AFB      CLEAR     70  59  69 SE12      29.97R
$$

OKZ018>020-024>031-050400-
CENTRAL OKLAHOMA

CITY           SKY/WX    TMP DP  RH WIND       PRES   REMARKS
OKLAHOMA CITY  MOCLDY    68  56  65 S7        30.01R
OKC/WILEY POST PTCLDY    72  56  57 S12       30.01R
STILLWATER     PTCLDY    71  57  61 S12       30.01R
GUTHRIE        PTCLDY    70  56  61 S9        30.01R
$$

OKZ008-013-054>072-050400-
NORTHEAST OKLAHOMA

CITY           SKY/WX    TMP DP  RH WIND       PRES   REMARKS
TULSA          PTCLDY    74  57  55 S9        30.03R
TULSA/JONES    CLEAR     73  57  57 S7        30.04R
PONCA CITY     MOCLDY    71  58  63 SE8       30.02R
BARTLESVILLE   CLEAR     63  57  81 CALM      30.05R
MUSKOGEE       CLEAR     66  57  72 S7        30.05R
$$

OKZ032-040>043-046>053-073>077-050400-
SOUTH CENTRAL/SOUTHEAST OKLAHOMA

CITY           SKY/WX    TMP DP  RH WIND       PRES   REMARKS
ARDMORE/DWNTWN MOCLDY    70  55  60 S3        30.03R
MCALESTER      CLEAR     68  53  58 SE5       30.05R
$$



USA.gov is the U.S. government's official web portal to all federal, state and local government web resources and services.